Regional Weather Roundup
Issued by NWS

Home | Current Version | Previous Version | Graphics & Text | Print | Product List | Glossary On
Versions: 1 2 3 4 5 6 7 8 9 10 11 12 13 14 15 16 17 18 19 20 21 22 23 24 25 26 27
000
ASUS45 KBOI 231810
RWRID

IDAHO REGIONAL WEATHER ROUNDUP
NATIONAL WEATHER SERVICE BOISE ID
1200 PM MDT MON APR 23 2018

NOTE: "FAIR" INDICATES FEW OR NO CLOUDS BELOW 12000 FEET
WITH NO SIGNIFICANT WEATHER AND/OR OBSTRUCTIONS TO VISIBILITY

IDZ012-014-231900-
SOUTHWEST IDAHO


CITY           SKY/WX    TMP DP  RH WIND       PRES   REMARKS
BOISE          SUNNY     55  27  34 NW15G23   30.24R
CALDWELL       SUNNY     58  27  30 NW12G20   30.26S
MOUNTAIN HOME  SUNNY     56  23  28 NW24G30   30.22S
$$

IDZ016-017-231900-
SOUTHCENTRAL IDAHO


CITY           SKY/WX    TMP DP  RH WIND       PRES   REMARKS
BURLEY         SUNNY     53  27  36 W16G24    30.20R
JEROME         SUNNY     52  25  35 SW23      30.22R
TWIN FALLS     SUNNY     53  26  35 W21G28    30.22R
$$

IDZ019>023-231900-
SOUTHEAST IDAHO


CITY           SKY/WX    TMP DP  RH WIND       PRES   REMARKS
IDAHO FALLS    CLOUDY    41  34  76 W10       30.22R
POCATELLO      PTSUNNY   48  31  51 W22       30.22R
REXBURG        CLOUDY    42  35  76 SW8       30.20R
$$

IDZ006-010-011-018-031-032-231900-
CENTRAL IDAHO MOUNTAINS


CITY           SKY/WX    TMP DP  RH WIND       PRES   REMARKS
MCCALL         SUNNY     49  23  36 NW9       30.22R
HAILEY         PTSUNNY   48  36  61 SE12G18   30.18R
STANLEY          N/A     46  28  49 N9        30.20R
SALMON         CLOUDY    51  29  42 N15       30.25R
CHALLIS        CLOUDY    52  28  39 NE15G21   30.21R
$$

IDZ002-004-006-007-026-231900-
NORTHERN IDAHO


CITY           SKY/WX    TMP DP  RH WIND       PRES   REMARKS
LEWISTON       SUNNY     56  36  47 VRB3      30.36R
LOWELL           N/A     57  34  41 CALM      30.33F
COEUR D`ALENE  SUNNY     55  27  34 NE14      30.36S
MULLAN PASS    SUNNY     43  21  41 VRB5      30.33R
$$




USA.gov is the U.S. government's official web portal to all federal, state and local government web resources and services.